View from above orbital plane
|
View from above satellite
|
Ground track
|
The orbit data is extracted from the following two-line orbital elements,
1 18009U 87043E 21016.15881250 .00001011 00000-0 96719-4 0 9999
2 18009 63.3030 292.9481 0941516 67.5079 302.2823 13.46386696 76016
Epoch (UTC): | 16 January 2021 03:48:41 |
Eccentricity: | 0.0941516 |
inclination: | 63.3030° |
perigee height: | 383 km |
apogee height: | 1788 km |
right ascension of ascending node: | 292.9481° |
argument of perigee: | 67.5079° |
revolutions per day: | 13.46386696 |
mean anomaly at epoch: | 302.2823° |
orbit number at epoch: | 7601 |
The dashed part of the orbit path shows where the satellite is in the earth's shadow,
|
|